EXPRESS-AM7

Last updated on Tue Oct 15 2024 00:02:40 GMT+0000 (Coordinated Universal Time)

1 40505U 15012A 24288.48712635 .00000148 00000+0 00000+0 0 9994 2 40505 0.0205 112.5757 0002822 106.3012 20.0363 1.00273452 34889
UTC large
Height (km)
Speed (km/s)
/
Latitude / Longitude
Inclination (degrees)
Orbital Period (minutes)
Azimuth
Elevation
Range (km)
Doppler Factor

Next 0 passes for location: London (51.5072 / 0.1276)

Sorry there are no passes over London.